Address 0x2ddb86898a2c2c884fc5cc3ca344898b0170a00d 2

Txn Hash Method
Block
From
To
Value [Txn Fee]
0xa8e71bd18f20bbc8782fe6277239a285f76ebfed9061b678675563b5cea1465cReport242297242024-02-24 23:55:191 min ago0x2ddb86898a2c2c884fc5cc3ca344898b0170a00dOUT Celo: Sorted Oracles Proxy0 CELO0.0019159425
0x2098a91af3af464055e458f76ed44c3ec02c3697b6290eb152769f5870b37b42Report242296732024-02-24 23:51:046 mins ago0x2ddb86898a2c2c884fc5cc3ca344898b0170a00dOUT Celo: Sorted Oracles Proxy0 CELO0.0017599425
0x40349d342d818e9200d9e841cd78cc1c0df9061f0e0dc57918eaae3f214e0da9Report242296232024-02-24 23:46:5410 mins ago0x2ddb86898a2c2c884fc5cc3ca344898b0170a00dOUT Celo: Sorted Oracles Proxy0 CELO0.0017599425
0x6e9f2903485aca8631ae3ae0b022eb830a53fee0483630b0bc50b6f60332a8beReport242295732024-02-24 23:42:4414 mins ago0x2ddb86898a2c2c884fc5cc3ca344898b0170a00dOUT Celo: Sorted Oracles Proxy0 CELO0.0019159425
0xc4f8d514f4750b2d40497dfaa6533003f2c8a136124060a1b1d14d5faa443da6Report242295232024-02-24 23:38:3418 mins ago0x2ddb86898a2c2c884fc5cc3ca344898b0170a00dOUT Celo: Sorted Oracles Proxy0 CELO0.0019677075
0xdeb7713e63efa064302929bbf17281c9d1d31b789b07c4f95e222ede6bb1f19dReport242294732024-02-24 23:34:2422 mins ago0x2ddb86898a2c2c884fc5cc3ca344898b0170a00dOUT Celo: Sorted Oracles Proxy0 CELO0.0019008525
0xcf9f9b89dedc15dd85db78da3f5af34f232bf16d4f399971fab2f1b58bbc8e3aReport242294232024-02-24 23:30:1426 mins ago0x2ddb86898a2c2c884fc5cc3ca344898b0170a00dOUT Celo: Sorted Oracles Proxy0 CELO0.0019159425
0x70f66cca33f2945a732d2ac6a043b774c2797a9c6abe0001b7ea0e81dacf4b4cReport242293732024-02-24 23:26:0431 mins ago0x2ddb86898a2c2c884fc5cc3ca344898b0170a00dOUT Celo: Sorted Oracles Proxy0 CELO0.0020067375
0xd197b45d609b9653b187945d8db352e0468d03761a1958f890272ef518403d09Report242293232024-02-24 23:21:5435 mins ago0x2ddb86898a2c2c884fc5cc3ca344898b0170a00dOUT Celo: Sorted Oracles Proxy0 CELO0.00166899
0xa679079f6dc33868b1baacb0783ee774dde10047ed47c1e2893136849c0b2c96Report242292742024-02-24 23:17:4939 mins ago0x2ddb86898a2c2c884fc5cc3ca344898b0170a00dOUT Celo: Sorted Oracles Proxy0 CELO0.0019717575
0x631b17b96d28f3c88ea56d515f7cce1a2addd56ffc6cf4724df4c0f4e8e6cb89Report242292242024-02-24 23:13:3943 mins ago0x2ddb86898a2c2c884fc5cc3ca344898b0170a00dOUT Celo: Sorted Oracles Proxy0 CELO0.0019159425
0xe61d4e292c29e198ad362763fa9ea641f64ef8725f07db26f42967dfaa10f436Report242291742024-02-24 23:09:2947 mins ago0x2ddb86898a2c2c884fc5cc3ca344898b0170a00dOUT Celo: Sorted Oracles Proxy0 CELO0.0019298625
0x8ae281b473996ef8fceeaa8031ee0b687f68143045e53e677717adfe172e2092Report242291242024-02-24 23:05:1951 mins ago0x2ddb86898a2c2c884fc5cc3ca344898b0170a00dOUT Celo: Sorted Oracles Proxy0 CELO0.0019159425
0x81ef247afb5a522b6600774a1c5005518be909572c30c5ac276f9066a6e02efbReport242290742024-02-24 23:01:0956 mins ago0x2ddb86898a2c2c884fc5cc3ca344898b0170a00dOUT Celo: Sorted Oracles Proxy0 CELO0.001876845
0x01dc7fc1c681ed48c16f4cba54d645bba0def128aeeb5759450de1e88c296f17Report242290232024-02-24 22:56:541 hr ago0x2ddb86898a2c2c884fc5cc3ca344898b0170a00dOUT Celo: Sorted Oracles Proxy0 CELO0.0019009425
0xb1c5087142097d133b9d432232c299756c16fb5bd69afe635e8d9259f1510a5fReport242289732024-02-24 22:52:441 hr 4 mins ago0x2ddb86898a2c2c884fc5cc3ca344898b0170a00dOUT Celo: Sorted Oracles Proxy0 CELO0.001960725
0x69c2ee5cc4ad2758c56e0b250365dccd98f7377f48f16b4a5492b02106541cadReport242289242024-02-24 22:48:391 hr 8 mins ago0x2ddb86898a2c2c884fc5cc3ca344898b0170a00dOUT Celo: Sorted Oracles Proxy0 CELO0.00200814
0x83573527f81e9e0c6103b0929d4347f610493327063abea3ed090b65b30141f5Report242288732024-02-24 22:44:241 hr 12 mins ago0x2ddb86898a2c2c884fc5cc3ca344898b0170a00dOUT Celo: Sorted Oracles Proxy0 CELO0.001960725
0x97fb7fe6e5bd736df9d143bd5c3783dd407bcab17699e536caa48285ce4eb2e6Report242288232024-02-24 22:40:141 hr 16 mins ago0x2ddb86898a2c2c884fc5cc3ca344898b0170a00dOUT Celo: Sorted Oracles Proxy0 CELO0.001945725
0x17264512cf6900fcdd1c9d2b144a0a4afea72191178f3c10e7fb451e4314ae05Report242287732024-02-24 22:36:041 hr 21 mins ago0x2ddb86898a2c2c884fc5cc3ca344898b0170a00dOUT Celo: Sorted Oracles Proxy0 CELO0.0019677075
0xda4a78effc8c935d847c62b7297098fbbec21c01dfe451a8d7d3fc956ec2b4bdReport242287232024-02-24 22:31:541 hr 25 mins ago0x2ddb86898a2c2c884fc5cc3ca344898b0170a00dOUT Celo: Sorted Oracles Proxy0 CELO0.0019159425
0x7ec64b62397b68160c7b67893d31f09c0bc9345957d6f38165d8c2fdc0aa7981Report242286732024-02-24 22:27:441 hr 29 mins ago0x2ddb86898a2c2c884fc5cc3ca344898b0170a00dOUT Celo: Sorted Oracles Proxy0 CELO0.0019297725
0xacf1923fa318b9076a833c314af63826fb78c4f5d6783e5adb851cbe7c547fb7Report242286232024-02-24 22:23:341 hr 33 mins ago0x2ddb86898a2c2c884fc5cc3ca344898b0170a00dOUT Celo: Sorted Oracles Proxy0 CELO0.0019159425
0x033b68bf64981c9053eeeb96b6b8dc41dc8db98d65573e1bd13418b0cd6ee7f3Report242285742024-02-24 22:19:291 hr 37 mins ago0x2ddb86898a2c2c884fc5cc3ca344898b0170a00dOUT Celo: Sorted Oracles Proxy0 CELO0.0019009425
0xf7d29d98cc783712c36caab8f0dff3e35120e1f0cd40c3b5f83ae4e6c085b83aReport242285232024-02-24 22:15:141 hr 41 mins ago0x2ddb86898a2c2c884fc5cc3ca344898b0170a00dOUT Celo: Sorted Oracles Proxy0 CELO0.0017449425
[ Download CSV Export 
Parent Txn Hash Block From To Value
Index Block
Loading

Contract Name:
0

Compiler Version
0

Optimization Enabled:
0

Other Settings:
-NA-
Block Transaction Gas Used Reward
Age Block Fee Address BC Fee Address Voting Power Jailed Incoming
Block Uncle Number Difficulty Gas Used Reward
Loading
Make sure to use the "Vote Down" button for any spammy posts, and the "Vote Up" for interesting conversations.